Time,TemperatureF,DewpointF,PressureIn,WindDirection,WindDirectionDegrees,WindSpeedMPH,WindSpeedGustMPH,Humidity,HourlyPrecipIn,Conditions,Clouds,dailyrainin,SoftwareType,DateUTC
2015-03-28 00:03:00,51.7,49.2,30.15,NE,56,1.0,2.0,91,0.00,,,0.00,Wunderground v.1.15,2015-03-28 07:03:00,
2015-03-28 00:08:00,51.7,49.2,30.15,ENE,60,1.0,2.0,91,0.00,,,0.00,Wunderground v.1.15,2015-03-28 07:08:00,
2015-03-28 00:13:00,51.7,49.2,30.15,ENE,66,1.0,1.0,91,0.00,,,0.00,Wunderground v.1.15,2015-03-28 07:13:00,
2015-03-28 00:23:00,51.6,49.1,30.16,ENE,60,1.0,1.0,91,0.00,,,0.00,Wunderground v.1.15,2015-03-28 07:23:00,
2015-03-28 00:28:00,51.6,49.4,30.16,NE,43,1.0,1.0,92,0.00,,,0.00,Wunderground v.1.15,2015-03-28 07:28:00,
2015-03-28 00:33:00,51.5,49.3,30.15,NE,46,1.0,2.0,92,0.00,,,0.00,Wunderground v.1.15,2015-03-28 07:33:00,
2015-03-28 00:38:00,51.5,49.3,30.15,NE,54,1.0,2.0,92,0.00,,,0.00,Wunderground v.1.15,2015-03-28 07:38:00,
2015-03-28 00:43:00,51.4,49.2,30.15,NNE,29,1.0,2.0,92,0.00,,,0.00,Wunderground v.1.15,2015-03-28 07:43:00,
2015-03-28 00:48:00,51.3,49.1,30.15,ENE,58,1.0,2.0,92,0.00,,,0.00,Wunderground v.1.15,2015-03-28 07:48:00,
2015-03-28 00:58:00,51.3,49.1,30.15,ENE,57,2.0,2.0,92,0.00,,,0.00,Wunderground v.1.15,2015-03-28 07:58:00,
2015-03-28 01:03:00,51.3,49.1,30.15,ENE,58,2.0,2.0,92,0.00,,,0.00,Wunderground v.1.15,2015-03-28 08:03:00,
2015-03-28 01:08:00,51.2,49.0,30.14,NE,42,2.0,2.0,92,0.00,,,0.00,Wunderground v.1.15,2015-03-28 08:08:00,
2015-03-28 01:13:00,51.2,49.0,30.14,NE,47,2.0,2.0,92,0.00,,,0.00,Wunderground v.1.15,2015-03-28 08:13:00,
2015-03-28 01:18:00,51.2,49.2,30.14,NE,49,2.0,2.0,93,0.00,,,0.00,Wunderground v.1.15,2015-03-28 08:18:00,
2015-03-28 01:23:00,51.2,49.2,30.14,NE,56,2.0,2.0,93,0.00,,,0.00,Wunderground v.1.15,2015-03-28 08:23:00,
2015-03-28 01:33:00,51.1,49.1,30.15,NE,55,1.0,1.0,93,0.00,,,0.00,Wunderground v.1.15,2015-03-28 08:33:00,
2015-03-28 01:38:00,51.0,49.0,30.15,NE,55,1.0,2.0,93,0.00,,,0.00,Wunderground v.1.15,2015-03-28 08:38:00,
2015-03-28 01:43:00,51.1,49.1,30.15,NE,50,1.0,1.0,93,0.00,,,0.00,Wunderground v.1.15,2015-03-28 08:43:00,
2015-03-28 01:48:00,51.2,49.2,30.15,NE,50,1.0,1.0,93,0.00,,,0.00,Wunderground v.1.15,2015-03-28 08:48:00,
2015-03-28 01:53:00,51.0,49.0,30.15,NE,50,1.0,2.0,93,0.00,,,0.00,Wunderground v.1.15,2015-03-28 08:53:00,
2015-03-28 01:58:00,51.0,49.0,30.15,NE,50,1.0,2.0,93,0.00,,,0.00,Wunderground v.1.15,2015-03-28 08:58:00,
2015-03-28 02:03:00,51.0,49.0,30.15,NE,50,1.0,1.0,93,0.00,,,0.00,Wunderground v.1.15,2015-03-28 09:03:00,
2015-03-28 02:08:00,50.9,48.9,30.15,NE,41,1.0,2.0,93,0.00,,,0.00,Wunderground v.1.15,2015-03-28 09:08:00,
2015-03-28 02:13:00,50.8,48.8,30.15,ENE,65,2.0,2.0,93,0.00,,,0.00,Wunderground v.1.15,2015-03-28 09:13:00,
2015-03-28 02:18:00,50.8,48.8,30.15,ENE,77,2.0,3.0,93,0.00,,,0.00,Wunderground v.1.15,2015-03-28 09:18:00,
2015-03-28 02:23:00,50.8,49.1,30.14,ENE,70,2.0,2.0,94,0.00,,,0.00,Wunderground v.1.15,2015-03-28 09:23:00,
2015-03-28 02:28:00,50.9,49.2,30.14,NE,44,2.0,2.0,94,0.00,,,0.00,Wunderground v.1.15,2015-03-28 09:28:00,
2015-03-28 02:38:00,50.9,49.2,30.14,NE,41,2.0,2.0,94,0.00,,,0.00,Wunderground v.1.15,2015-03-28 09:38:00,
2015-03-28 02:43:00,50.9,49.2,30.14,NNE,25,2.0,2.0,94,0.00,,,0.00,Wunderground v.1.15,2015-03-28 09:43:00,
2015-03-28 02:48:00,50.9,49.2,30.14,NE,37,2.0,2.0,94,0.00,,,0.00,Wunderground v.1.15,2015-03-28 09:48:00,
2015-03-28 02:53:00,50.8,49.1,30.14,ENE,65,2.0,2.0,94,0.00,,,0.00,Wunderground v.1.15,2015-03-28 09:53:00,
2015-03-28 02:58:00,50.8,49.1,30.14,NE,55,2.0,2.0,94,0.00,,,0.00,Wunderground v.1.15,2015-03-28 09:58:00,
2015-03-28 03:08:00,50.8,49.1,30.13,NNE,30,2.0,2.0,94,0.00,,,0.00,Wunderground v.1.15,2015-03-28 10:08:00,